Flag for Canada Weather past 2 weeks in Fort St. John, British Columbia, Canada

Now
59 °F

Partly sunny.


Feels Like: 57 °F
Forecast: 54 / 67 °F
Wind: 9 mph from Southwest

Location: Fort St John

Current Time: Jul 25, 2014 at 11:39:19 AM

Latest Report: Jul 25, 2014 at 11:00 AM


Visibility: 15 mi

Pressure: 29.93 "Hg

Humidity: 94%

Dew point: 57 °F

Location of Fort St. JohnLocation

Historic Weather in Fort St. John — Graph

°F

Fort St. John temperature yesterday

Maximum temperature yesterday: 68 °F (at 1:00 PM)
Minimum temperature yesterday: 57 °F (at 4:00 AM)
Average temperature yesterday: 61 °F

Past Weeks' High & Low Weather Summary

 TemperatureHumidityPressure
High90 °F (Jul 12, 4:00 PM)100% (Jul 17, 7:00 AM)30.16 "Hg (Jul 17, 7:00 AM)
Low48 °F (Jul 18, 4:00 AM)22% (Jul 12, 2:00 PM)29.52 "Hg (Jul 18, 11:00 PM)
Average64 °F70%29.91 "Hg
* Reported Jul 10 10:00 AM — Jul 25 10:00 AM, Fort St. John, Weather by CustomWeather, © 2014

Note: Actual official high and low records may vary slightly from our data, if they occured in-between our weather recording intervals... More about our weather records

Advertising

Fort St. John weather history for previous 24 hours

 ConditionsComfort  
Time TempWeatherWind HumidityBarometerVisibility
10:00 AM
Jul 25
57 °FSprinkles. Mostly cloudy.8 mph94%29.93 "Hg15 mi
9:00 AM55 °FSprinkles. Mostly cloudy.12 mph100%29.93 "Hg10 mi
8:00 AM55 °FSprinkles. Mostly cloudy.12 mph100%29.91 "Hg10 mi
7:00 AM55 °FMostly cloudy.8 mph94%29.89 "Hg15 mi
6:00 AM55 °FSprinkles. Mostly cloudy.12 mph94%29.88 "Hg15 mi
5:00 AM55 °FSprinkles. Mostly cloudy.9 mph94%29.87 "Hg15 mi
4:00 AM55 °FSprinkles. Overcast.12 mph94%29.86 "Hg15 mi
3:00 AM55 °FSprinkles. Overcast.7 mph100%29.84 "Hg15 mi
2:00 AM55 °FSprinkles. Overcast.8 mph100%29.83 "Hg15 mi
1:00 AM57 °FSprinkles. Overcast.9 mph94%29.81 "Hg15 mi
12:00 AM57 °FMostly cloudy.6 mph94%29.81 "Hg15 mi
11:00 PM
Jul 24
57 °FSprinkles. Overcast.8 mph100%29.80 "Hg15 mi
10:00 PM57 °FSprinkles. Mostly cloudy.No wind100%29.78 "Hg15 mi
9:00 PM59 °FSprinkles. Overcast.3 mph94%29.77 "Hg15 mi
8:00 PM59 °FSprinkles. Mostly cloudy.6 mph94%29.76 "Hg10 mi
7:00 PM61 °FMostly cloudy.2 mph88%29.76 "Hg15 mi
6:00 PM59 °FScattered showers. Overcast.6 mph94%29.75 "Hg15 mi
5:00 PM59 °FSprinkles. Overcast.6 mph94%29.75 "Hg10 mi
4:00 PM59 °FSprinkles. Mostly cloudy.9 mph94%29.74 "Hg6 mi
3:00 PM63 °FSprinkles. Mostly cloudy.10 mph77%29.71 "Hg10 mi
2:00 PM66 °FSprinkles. Mostly cloudy.9 mph60%29.69 "Hg10 mi
1:00 PM68 °FMore clouds than sun.14 mph56%29.68 "Hg15 mi
12:00 PM66 °FBroken clouds.16 mph60%29.69 "Hg15 mi
11:00 AM64 °FBroken clouds.12 mph68%29.72 "Hg15 mi
Weather by CustomWeather, © 2014

See weather overviewHow to use our weather pages